Time,TemperatureF,DewpointF,PressureIn,WindDirection,WindDirectionDegrees,WindSpeedMPH,WindSpeedGustMPH,Humidity,HourlyPrecipIn,Conditions,Clouds,dailyrainin,SoftwareType,DateUTC
2013-01-22 00:02:00,-1.0,-9.0,-100.00,NW,305,13.0,16.0,67,0.00,,,0.00,,2013-01-22 06:02:00,
2013-01-22 00:12:00,-1.0,-9.0,-100.00,WNW,300,13.0,17.0,66,0.00,,,0.00,,2013-01-22 06:12:00,
2013-01-22 00:22:00,-1.0,-9.0,-100.00,NW,305,13.0,16.0,66,0.00,,,0.00,,2013-01-22 06:22:00,
2013-01-22 00:33:00,-1.0,-9.0,-100.00,NW,305,12.0,16.0,66,0.00,,,0.00,,2013-01-22 06:33:00,
2013-01-22 00:43:00,-2.0,-9.0,-100.00,NW,310,11.0,15.0,67,0.00,,,0.00,,2013-01-22 06:43:00,
2013-01-22 00:52:00,-2.0,-9.0,-100.00,NW,305,11.0,14.0,67,0.00,,,0.00,,2013-01-22 06:52:00,
2013-01-22 01:02:00,-2.0,-9.0,-100.00,NW,310,10.0,14.0,67,0.00,,,0.00,,2013-01-22 07:02:00,
2013-01-22 01:12:00,-2.0,-9.0,-100.00,NW,310,11.0,14.0,67,0.00,,,0.00,,2013-01-22 07:12:00,
2013-01-22 01:22:00,-2.0,-9.0,-100.00,NW,310,10.0,13.0,68,0.00,,,0.00,,2013-01-22 07:22:00,
2013-01-22 01:32:00,-2.0,-9.0,-100.00,NW,305,10.0,13.0,68,0.00,,,0.00,,2013-01-22 07:32:00,
2013-01-22 01:42:00,-2.0,-11.0,-100.00,NW,310,9.0,13.0,67,0.00,,,0.00,,2013-01-22 07:42:00,
2013-01-22 01:52:00,-2.0,-11.0,-100.00,NW,305,9.0,12.0,67,0.00,,,0.00,,2013-01-22 07:52:00,
2013-01-22 02:02:00,-3.0,-11.0,-100.00,NW,305,9.0,12.0,67,0.00,,,0.00,,2013-01-22 08:02:00,
2013-01-22 02:12:00,-3.0,-11.0,-100.00,NW,305,10.0,12.0,68,0.00,,,0.00,,2013-01-22 08:12:00,
2013-01-22 02:22:00,-3.0,-11.0,-100.00,NW,310,8.0,12.0,68,0.00,,,0.00,,2013-01-22 08:22:00,
2013-01-22 02:32:00,-3.0,-11.0,-100.00,NW,310,9.0,12.0,69,0.00,,,0.00,,2013-01-22 08:32:00,
2013-01-22 02:42:00,-4.0,-11.0,-100.00,NW,320,8.0,12.0,69,0.00,,,0.00,,2013-01-22 08:42:00,
2013-01-22 02:52:00,-4.0,-11.0,-100.00,NW,315,7.0,12.0,70,0.00,,,0.00,,2013-01-22 08:52:00,
2013-01-22 03:02:00,-4.0,-11.0,-100.00,NW,320,7.0,11.0,70,0.00,,,0.00,,2013-01-22 09:02:00,
2013-01-22 03:12:00,-4.0,-11.0,-100.00,NNW,330,7.0,9.0,71,0.00,,,0.00,,2013-01-22 09:12:00,
2013-01-22 03:22:00,-5.0,-11.0,-100.00,NNW,340,5.0,7.0,71,0.00,,,0.00,,2013-01-22 09:22:00,
2013-01-22 03:32:00,-6.0,-13.0,-100.00,North,350,4.0,6.0,72,0.00,,,0.00,,2013-01-22 09:32:00,
2013-01-22 03:42:00,-5.0,-11.0,-100.00,NNW,340,5.0,7.0,72,0.00,,,0.00,,2013-01-22 09:42:00,
2013-01-22 03:52:00,-6.0,-13.0,-100.00,NNW,340,4.0,6.0,73,0.00,,,0.00,,2013-01-22 09:52:00,
2013-01-22 04:02:00,-6.0,-13.0,-100.00,NNW,340,4.0,6.0,73,0.00,,,0.00,,2013-01-22 10:02:00,
2013-01-22 04:12:00,-6.0,-13.0,-100.00,NNW,330,5.0,6.0,73,0.00,,,0.00,,2013-01-22 10:12:00,
2013-01-22 04:22:00,-6.0,-13.0,-100.00,NNW,340,4.0,6.0,74,0.00,,,0.00,,2013-01-22 10:22:00,
2013-01-22 04:32:00,-7.0,-13.0,-100.00,NW,320,4.0,4.0,73,0.00,,,0.00,,2013-01-22 10:32:00,
2013-01-22 04:42:00,-7.0,-13.0,-100.00,NW,310,4.0,4.0,74,0.00,,,0.00,,2013-01-22 10:42:00,
2013-01-22 04:52:00,-7.0,-13.0,-100.00,NW,315,3.0,4.0,73,0.00,,,0.00,,2013-01-22 10:52:00,
2013-01-22 05:02:00,-7.0,-13.0,-100.00,NW,305,3.0,4.0,73,0.00,,,0.00,,2013-01-22 11:02:00,
2013-01-22 05:12:00,-7.0,-13.0,-100.00,WNW,290,4.0,5.0,74,0.00,,,0.00,,2013-01-22 11:12:00,
2013-01-22 05:22:00,-7.0,-13.0,-100.00,WNW,290,4.0,5.0,73,0.00,,,0.00,,2013-01-22 11:22:00,
2013-01-22 05:33:00,-7.0,-13.0,-100.00,WNW,300,4.0,5.0,74,0.00,,,0.00,,2013-01-22 11:33:00,
2013-01-22 05:43:00,-7.0,-13.0,-100.00,NW,310,4.0,6.0,73,0.00,,,0.00,,2013-01-22 11:43:00,
2013-01-22 05:53:00,-7.0,-13.0,-100.00,NW,310,6.0,6.0,73,0.00,,,0.00,,2013-01-22 11:53:00,
2013-01-22 06:04:00,-7.0,-13.0,-100.00,NW,305,4.0,6.0,71,0.00,,,0.00,,2013-01-22 12:04:00,
2013-01-22 06:13:00,-6.0,-13.0,-100.00,NW,320,4.0,6.0,71,0.00,,,0.00,,2013-01-22 12:13:00,
2013-01-22 06:23:00,-6.0,-13.0,-100.00,NW,305,4.0,5.0,70,0.00,,,0.00,,2013-01-22 12:23:00,
2013-01-22 06:33:00,-6.0,-13.0,-100.00,NW,310,4.0,6.0,68,0.00,,,0.00,,2013-01-22 12:33:00,
2013-01-22 06:43:00,-5.0,-13.0,-100.00,NW,325,4.0,6.0,68,0.00,,,0.00,,2013-01-22 12:43:00,
2013-01-22 06:52:00,-5.0,-13.0,-100.00,WNW,300,4.0,6.0,67,0.00,,,0.00,,2013-01-22 12:52:00,
2013-01-22 07:04:00,-6.0,-15.0,-100.00,WNW,300,4.0,6.0,66,0.00,,,0.00,,2013-01-22 13:04:00,
2013-01-22 07:13:00,-6.0,-15.0,-100.00,WNW,285,4.0,5.0,66,0.00,,,0.00,,2013-01-22 13:13:00,
2013-01-22 07:23:00,-6.0,-15.0,-100.00,WNW,300,3.0,4.0,67,0.00,,,0.00,,2013-01-22 13:23:00,
2013-01-22 07:33:00,-6.0,-13.0,-100.00,West,280,3.0,4.0,68,0.00,,,0.00,,2013-01-22 13:33:00,
2013-01-22 07:43:00,-6.0,-13.0,-100.00,WNW,290,3.0,4.0,69,0.00,,,0.00,,2013-01-22 13:43:00,
2013-01-22 07:53:00,-6.0,-13.0,-100.00,West,280,3.0,4.0,69,0.00,,,0.00,,2013-01-22 13:53:00,
2013-01-22 08:03:00,-6.0,-13.0,-100.00,West,280,2.0,3.0,69,0.00,,,0.00,,2013-01-22 14:03:00,
2013-01-22 08:13:00,-6.0,-15.0,-100.00,North,355,1.0,3.0,67,0.00,,,0.00,,2013-01-22 14:13:00,
2013-01-22 08:23:00,-6.0,-15.0,-100.00,NW,320,1.0,2.0,65,0.00,,,0.00,,2013-01-22 14:23:00,
2013-01-22 08:34:00,-6.0,-15.0,-100.00,West,265,0.0,1.0,66,0.00,,,0.00,,2013-01-22 14:34:00,
2013-01-22 08:44:00,-5.0,-13.0,-100.00,SW,230,0.0,1.0,66,0.00,,,0.00,,2013-01-22 14:44:00,
2013-01-22 08:53:00,-5.0,-13.0,-100.00,WNW,285,1.0,1.0,65,0.00,,,0.00,,2013-01-22 14:53:00,
2013-01-22 09:03:00,-5.0,-13.0,-100.00,West,280,1.0,2.0,64,0.00,,,0.00,,2013-01-22 15:03:00,
2013-01-22 09:13:00,-5.0,-13.0,-100.00,West,275,2.0,2.0,64,0.00,,,0.00,,2013-01-22 15:13:00,
2013-01-22 09:23:00,-3.0,-11.0,-100.00,SW,225,2.0,2.0,65,0.00,,,0.00,,2013-01-22 15:23:00,
2013-01-22 09:34:00,-2.0,-11.0,-100.00,West,265,2.0,4.0,66,0.00,,,0.00,,2013-01-22 15:34:00,
2013-01-22 09:43:00,-2.0,-9.0,-100.00,West,280,5.0,6.0,67,0.00,,,0.00,,2013-01-22 15:43:00,
2013-01-22 09:52:00,-1.0,-11.0,-100.00,WNW,285,4.0,7.0,65,0.00,,,0.00,,2013-01-22 15:52:00,
2013-01-22 10:03:00,-1.0,-9.0,-100.00,WNW,290,4.0,6.0,65,0.00,,,0.00,,2013-01-22 16:03:00,
2013-01-22 10:13:00,0.0,-9.0,-100.00,West,280,6.0,7.0,64,0.00,,,0.00,,2013-01-22 16:13:00,
2013-01-22 10:23:00,0.0,-9.0,-100.00,WNW,290,6.0,9.0,65,0.00,,,0.00,,2013-01-22 16:23:00,
2013-01-22 10:33:00,0.0,-9.0,-100.00,WNW,295,7.0,9.0,65,0.00,,,0.00,,2013-01-22 16:33:00,
2013-01-22 10:43:00,0.0,-9.0,-100.00,NW,310,5.0,9.0,63,0.00,,,0.00,,2013-01-22 16:43:00,
2013-01-22 10:53:00,0.0,-9.0,-100.00,WNW,290,6.0,8.0,63,0.00,,,0.00,,2013-01-22 16:53:00,
2013-01-22 11:03:00,1.0,-9.0,-100.00,WNW,295,8.0,10.0,62,0.00,,,0.00,,2013-01-22 17:03:00,
2013-01-22 11:13:00,1.0,-9.0,-100.00,West,280,7.0,11.0,61,0.00,,,0.00,,2013-01-22 17:13:00,
2013-01-22 11:23:00,2.0,-9.0,-100.00,WNW,300,8.0,9.0,59,0.00,,,0.00,,2013-01-22 17:23:00,
2013-01-22 11:34:00,2.0,-9.0,-100.00,WNW,285,6.0,9.0,60,0.00,,,0.00,,2013-01-22 17:34:00,
2013-01-22 11:43:00,3.0,-8.0,-100.00,West,270,6.0,9.0,60,0.00,,,0.00,,2013-01-22 17:43:00,
2013-01-22 11:53:00,3.0,-8.0,-100.00,West,260,6.0,9.0,60,0.00,,,0.00,,2013-01-22 17:53:00,
2013-01-22 12:04:00,4.0,-8.0,-100.00,NW,305,7.0,9.0,60,0.00,,,0.00,,2013-01-22 18:04:00,
2013-01-22 12:13:00,4.0,-6.0,-100.00,WNW,295,6.0,9.0,60,0.00,,,0.00,,2013-01-22 18:13:00,
2013-01-22 12:23:00,5.0,-6.0,-100.00,West,280,7.0,11.0,60,0.00,,,0.00,,2013-01-22 18:23:00,
2013-01-22 12:33:00,6.0,-6.0,-100.00,WSW,255,8.0,12.0,60,0.00,,,0.00,,2013-01-22 18:33:00,
2013-01-22 12:43:00,5.0,-6.0,-100.00,West,265,11.0,15.0,58,0.00,,,0.00,,2013-01-22 18:43:00,
2013-01-22 12:53:00,6.0,-8.0,-100.00,West,275,9.0,13.0,55,0.00,,,0.00,,2013-01-22 18:53:00,
2013-01-22 13:03:00,6.0,-6.0,-100.00,West,280,7.0,12.0,56,0.00,,,0.00,,2013-01-22 19:03:00,
2013-01-22 13:13:00,6.0,-6.0,-100.00,West,275,8.0,12.0,55,0.00,,,0.00,,2013-01-22 19:13:00,
2013-01-22 13:23:00,7.0,-8.0,-100.00,WSW,255,9.0,14.0,53,0.00,,,0.00,,2013-01-22 19:23:00,
2013-01-22 13:33:00,7.0,-8.0,-100.00,West,280,6.0,11.0,52,0.00,,,0.00,,2013-01-22 19:33:00,
2013-01-22 13:43:00,7.0,-6.0,-100.00,West,260,7.0,10.0,54,0.00,,,0.00,,2013-01-22 19:43:00,
2013-01-22 13:53:00,7.0,-8.0,-100.00,WNW,285,9.0,13.0,52,0.00,,,0.00,,2013-01-22 19:53:00,
2013-01-22 14:03:00,7.0,-6.0,-100.00,WNW,295,9.0,11.0,52,0.00,,,0.00,,2013-01-22 20:03:00,
2013-01-22 14:13:00,7.0,-6.0,-100.00,West,280,7.0,12.0,53,0.00,,,0.00,,2013-01-22 20:13:00,
2013-01-22 14:23:00,8.0,-6.0,-100.00,West,280,9.0,11.0,51,0.00,,,0.00,,2013-01-22 20:23:00,
2013-01-22 14:33:00,8.0,-6.0,-100.00,WNW,285,5.0,11.0,52,0.00,,,0.00,,2013-01-22 20:33:00,
2013-01-22 14:43:00,8.0,-6.0,-100.00,West,280,4.0,9.0,52,0.00,,,0.00,,2013-01-22 20:43:00,
2013-01-22 14:53:00,8.0,-6.0,-100.00,West,265,2.0,9.0,50,0.00,,,0.00,,2013-01-22 20:53:00,
2013-01-22 15:03:00,8.0,-6.0,-100.00,WSW,250,5.0,9.0,51,0.00,,,0.00,,2013-01-22 21:03:00,
2013-01-22 15:13:00,9.0,-4.0,-100.00,WSW,240,4.0,9.0,53,0.00,,,0.00,,2013-01-22 21:13:00,
2013-01-22 15:23:00,9.0,-6.0,-100.00,WSW,245,3.0,6.0,52,0.00,,,0.00,,2013-01-22 21:23:00,
2013-01-22 15:33:00,9.0,-6.0,-100.00,West,280,4.0,6.0,51,0.00,,,0.00,,2013-01-22 21:33:00,
2013-01-22 15:43:00,10.0,-4.0,-100.00,WSW,255,4.0,6.0,51,0.00,,,0.00,,2013-01-22 21:43:00,
2013-01-22 15:53:00,10.0,-6.0,-100.00,WNW,285,4.0,7.0,50,0.00,,,0.00,,2013-01-22 21:53:00,
2013-01-22 16:03:00,11.0,-4.0,-100.00,West,270,2.0,6.0,51,0.00,,,0.00,,2013-01-22 22:03:00,
2013-01-22 16:13:00,10.0,-4.0,-100.00,West,280,3.0,6.0,50,0.00,,,0.00,,2013-01-22 22:13:00,
2013-01-22 16:22:00,10.0,-4.0,-100.00,WNW,290,2.0,4.0,50,0.00,,,0.00,,2013-01-22 22:22:00,
2013-01-22 16:32:00,10.0,-4.0,-100.00,WNW,290,0.0,3.0,51,0.00,,,0.00,,2013-01-22 22:32:00,
2013-01-22 16:43:00,10.0,-4.0,-100.00,WSW,255,2.0,3.0,50,0.00,,,0.00,,2013-01-22 22:43:00,
2013-01-22 16:53:00,10.0,-4.0,-100.00,WNW,285,2.0,4.0,52,0.00,,,0.00,,2013-01-22 22:53:00,
2013-01-22 17:03:00,10.0,-4.0,-100.00,WNW,285,1.0,2.0,51,0.00,,,0.00,,2013-01-22 23:03:00,
2013-01-22 17:12:00,10.0,-4.0,-100.00,WNW,290,1.0,2.0,52,0.00,,,0.00,,2013-01-22 23:12:00,
2013-01-22 17:33:00,9.0,-4.0,-100.00,ESE,105,0.0,1.0,54,0.00,,,0.00,,2013-01-22 23:33:00,
2013-01-22 17:43:00,9.0,-4.0,-100.00,ESE,105,1.0,1.0,56,0.00,,,0.00,,2013-01-22 23:43:00,
2013-01-22 17:52:00,8.0,-4.0,-100.00,SE,130,2.0,2.0,58,0.00,,,0.00,,2013-01-22 23:52:00,
2013-01-22 18:03:00,8.0,-2.0,-100.00,SE,130,3.0,4.0,61,0.00,,,0.00,,2013-01-23 00:03:00,
2013-01-22 18:12:00,7.0,-2.0,-100.00,ESE,115,6.0,6.0,63,0.00,,,0.00,,2013-01-23 00:12:00,
2013-01-22 18:23:00,7.0,-2.0,-100.00,SE,135,4.0,6.0,64,0.00,,,0.00,,2013-01-23 00:23:00,
2013-01-22 18:33:00,7.0,-2.0,-100.00,SE,125,4.0,6.0,66,0.00,,,0.00,,2013-01-23 00:33:00,
2013-01-22 18:43:00,8.0,-2.0,-100.00,ESE,120,7.0,8.0,62,0.00,,,0.00,,2013-01-23 00:43:00,
2013-01-22 18:52:00,7.0,-2.0,-100.00,ESE,115,6.0,8.0,64,0.00,,,0.00,,2013-01-23 00:52:00,
2013-01-22 19:03:00,7.0,-2.0,-100.00,ESE,105,6.0,7.0,66,0.00,,,0.00,,2013-01-23 01:03:00,
2013-01-22 19:13:00,6.0,-2.0,-100.00,ESE,110,6.0,7.0,68,0.00,,,0.00,,2013-01-23 01:13:00,
2013-01-22 19:23:00,7.0,0.0,-100.00,SSE,150,5.0,6.0,70,0.00,,,0.00,,2013-01-23 01:23:00,
2013-01-22 19:33:00,7.0,0.0,-100.00,SSE,150,4.0,6.0,72,0.00,,,0.00,,2013-01-23 01:33:00,
2013-01-22 19:43:00,8.0,1.0,-100.00,SSE,155,4.0,4.0,73,0.00,,,0.00,,2013-01-23 01:43:00,
2013-01-22 19:52:00,8.0,1.0,-100.00,SSE,155,4.0,4.0,73,0.00,,,0.00,,2013-01-23 01:52:00,
2013-01-22 20:03:00,9.0,3.0,-100.00,SSE,165,4.0,5.0,73,0.00,,,0.00,,2013-01-23 02:03:00,
2013-01-22 20:13:00,9.0,3.0,-100.00,SSE,165,5.0,6.0,73,0.00,,,0.00,,2013-01-23 02:13:00,
2013-01-22 20:23:00,11.0,3.0,-100.00,SSW,200,6.0,7.0,71,0.00,,,0.00,,2013-01-23 02:23:00,
2013-01-22 20:33:00,11.0,3.0,-100.00,SSW,205,7.0,9.0,68,0.00,,,0.00,,2013-01-23 02:33:00,
2013-01-22 20:43:00,11.0,3.0,-100.00,South,190,6.0,10.0,68,0.00,,,0.00,,2013-01-23 02:43:00,
2013-01-22 20:53:00,11.0,1.0,-100.00,SSW,195,7.0,9.0,65,0.00,,,0.00,,2013-01-23 02:53:00,
2013-01-22 21:03:00,11.0,3.0,-100.00,SSW,200,7.0,9.0,66,0.00,,,0.00,,2013-01-23 03:03:00,
2013-01-22 21:13:00,11.0,3.0,-100.00,SSW,210,9.0,11.0,67,0.00,,,0.00,,2013-01-23 03:13:00,
2013-01-22 21:23:00,11.0,3.0,-100.00,SSW,205,9.0,13.0,69,0.00,,,0.00,,2013-01-23 03:23:00,
2013-01-22 21:33:00,11.0,3.0,-100.00,SSW,210,10.0,14.0,69,0.00,,,0.00,,2013-01-23 03:33:00,
2013-01-22 21:42:00,11.0,3.0,-100.00,SW,215,12.0,16.0,68,0.00,,,0.00,,2013-01-23 03:42:00,
2013-01-22 21:53:00,11.0,3.0,-100.00,SW,215,10.0,15.0,70,0.00,,,0.00,,2013-01-23 03:53:00,
2013-01-22 22:03:00,11.0,3.0,-100.00,SSW,210,12.0,14.0,70,0.00,,,0.00,,2013-01-23 04:03:00,
2013-01-22 22:12:00,11.0,5.0,-100.00,SW,215,10.0,14.0,72,0.00,,,0.00,,2013-01-23 04:12:00,
2013-01-22 22:23:00,11.0,5.0,-100.00,SSW,210,10.0,12.0,75,0.00,,,0.00,,2013-01-23 04:23:00,
2013-01-22 22:33:00,11.0,5.0,-100.00,SSW,205,12.0,14.0,76,0.00,,,0.00,,2013-01-23 04:33:00,
2013-01-22 22:43:00,12.0,7.0,-100.00,SSW,205,12.0,14.0,78,0.00,,,0.00,,2013-01-23 04:43:00,
2013-01-22 22:52:00,12.0,7.0,-100.00,SSW,205,11.0,14.0,80,0.00,,,0.00,,2013-01-23 04:52:00,
2013-01-22 23:03:00,12.0,7.0,-100.00,SSW,205,11.0,14.0,81,0.00,,,0.00,,2013-01-23 05:03:00,
2013-01-22 23:12:00,12.0,7.0,-100.00,SSW,210,11.0,14.0,81,0.00,,,0.00,,2013-01-23 05:12:00,
2013-01-22 23:22:00,12.0,7.0,-100.00,SSW,210,12.0,16.0,81,0.00,,,0.00,,2013-01-23 05:22:00,
2013-01-22 23:33:00,12.0,7.0,-100.00,SSW,210,12.0,16.0,81,0.00,,,0.00,,2013-01-23 05:33:00,
2013-01-22 23:43:00,12.0,9.0,-100.00,SW,215,11.0,16.0,82,0.00,,,0.00,,2013-01-23 05:43:00,
2013-01-22 23:52:00,12.0,9.0,-100.00,SW,215,11.0,15.0,82,0.00,,,0.00,,2013-01-23 05:52:00,